Weather History for KSJT - March, 2013

Change the Weather History Date:

Wednesday, March 13, 2013

  Actual Average Record
Temperature  
Mean Temperature 57 °F 57 °F  
Max Temperature 79 °F 70 °F 94 °F (1967)
Min Temperature 34 °F 44 °F 19 °F (1951)
Degree Days  
Heating Degree Days 8 9  
Month to date heating degree days 116 134  
Since 1 July heating degree days 1718 2095  
Cooling Degree Days 0 1  
Month to date cooling degree days 9 10  
Year to date cooling degree days 21 15  
Growing Degree Days 7 (Base 50)    
Moisture  
Dew Point 26 °F    
Average Humidity 35    
Maximum Humidity 56    
Minimum Humidity 13    
Precipitation  
Precipitation 0.00 in 0.04 in 0.25 in (1937)
Month to date precipitation T 0.65  
Year to date precipitation 1.82 2.93  
Snow  
Snow 0.00 in 0.00 in 0.00 in (2002)
Month to date snowfall 0.0 0.1  
Since 1 July snowfall 2.8 2.2  
Snow Depth 0.00 in    
Sea Level Pressure  
Sea Level Pressure 30.30 in    
Wind  
Wind Speed 8 mph (SE)    
Max Wind Speed 15 mph    
Max Gust Speed 21 mph    
Visibility 10 miles    
Events      
T = Trace of Precipitation, MM = Missing Value Source: NWS Daily Summary

Daily Weather History Graph

Daily Weather History Graph

Search for Another Location

Airport or City:

Trip Planner

Search our weather history database for the weather conditions in past years. The results will help you decide how hot, cold, wet, or windy it might be!

Date:

Astronomy

Mar. 13, 2013 Rise Set
Actual Time 7:54 AM CDT 7:48 PM CDT
Civil Twilight 7:29 AM CDT 8:13 PM CDT
Nautical Twilight 7:01 AM CDT 8:41 PM CDT
Astronomical Twilight 6:33 AM CDT 9:09 PM CDT
Moon 8:44 AM CDT (3/13) 9:55 PM CDT (3/13)
Length of Visible Light 12h 43m
Length of Day
11h 54m
Waxing Crescent, 4% of the Moon is Illuminated
Mar 13
Waxing Crescent
Mar 19
First Quarter
Mar 27
Full
Apr 2
Last Quarter
Apr 10
New

Hourly Weather History & Observations

Time (CDT) Temp. Windchill Dew Point Humidity Pressure Visibility Wind Dir Wind Speed Gust Speed Precip Events Conditions
12:51 AM 51.1 °F - 25.0 °F 36% 30.30 in 10.0 mi NE 11.5 mph - N/A   Clear
1:51 AM 48.9 °F - 25.0 °F 39% 30.30 in 10.0 mi NNE 9.2 mph - N/A   Clear
2:51 AM 46.9 °F - 25.0 °F 42% 30.31 in 10.0 mi NE 8.1 mph - N/A   Clear
4:51 AM 42.1 °F 40.2 °F 26.1 °F 53% 30.32 in 10.0 mi NE 3.5 mph - N/A   Clear
5:51 AM 41.0 °F 37.1 °F 25.0 °F 53% 30.33 in 10.0 mi NNE 5.8 mph - N/A   Clear
7:51 AM 35.1 °F 32.2 °F 21.9 °F 59% 30.39 in 10.0 mi ESE 3.5 mph - N/A   Clear
8:51 AM 39.9 °F - 23.0 °F 51% 30.41 in 10.0 mi Calm Calm - N/A   Clear
9:51 AM 48.9 °F - 25.0 °F 39% 30.41 in 10.0 mi ENE 6.9 mph - N/A   Clear
10:51 AM 54.0 °F - 27.0 °F 35% 30.40 in 10.0 mi East 8.1 mph - N/A   Clear
11:51 AM 63.0 °F - 30.9 °F 30% 30.38 in 10.0 mi SSE 8.1 mph 18.4 mph N/A   Clear
12:51 PM 66.9 °F - 34.0 °F 30% 30.35 in 10.0 mi South 12.7 mph 18.4 mph N/A   Clear
1:51 PM 70.0 °F - 33.1 °F 26% 30.32 in 10.0 mi SSE 8.1 mph - N/A   Clear
2:51 PM 73.9 °F - 30.0 °F 20% 30.28 in 10.0 mi Variable 5.8 mph - N/A   Clear
4:51 PM 77.0 °F - 26.1 °F 15% 30.22 in 10.0 mi South 6.9 mph - N/A   Clear
5:51 PM 78.1 °F - 24.1 °F 14% 30.21 in 10.0 mi SW 9.2 mph - N/A   Clear
6:51 PM 77.0 °F - 24.1 °F 14% 30.20 in 10.0 mi SW 8.1 mph - N/A   Clear
7:51 PM 71.1 °F - 25.0 °F 18% 30.23 in 10.0 mi South 6.9 mph - N/A   Clear
8:51 PM 66.9 °F - 25.0 °F 21% 30.23 in 10.0 mi South 8.1 mph - N/A   Clear
9:51 PM 61.0 °F - 25.0 °F 25% 30.25 in 10.0 mi North - - N/A   Clear
10:51 PM 61.0 °F - 28.0 °F 29% 30.25 in 10.0 mi South 9.2 mph - N/A   Clear
11:51 PM 57.9 °F - 28.9 °F 33% 30.25 in 10.0 mi South 10.4 mph - N/A   Clear